DLH757 VABB-EDDF

Flight info

Callsign DLH757
Flight time N/A
Altitude 35000
Route ANOLI2A ISRIS G208 APANO/N0497F340 G451 AAE Z8 ABVUL/N0487F360 Z8 VIKIT P628 RK G202 ZB L750 RANAH B449 KEMOR/N0473F380 B449 DUKAN L850 ADEKI N644 TETRO M10 SARPI UM10 OLUPO/N0478F400 UM10 GOKPA UL746 ODERO DCT OPT DCT TEGRI DCT ARSIN DCT SUBEN DCT AKINI T161 DEBHI SPESA5B
Aircraft A343/H-SDE2E3FGHIJ4J5M1RWXY/LB1D1

Departure

Time 2026-05-04 17:17
Airport Chhatrapati Shivaji Maharaj International Airport (VABB)

Arrival

Time N/A
Airport Frankfurt Main Airport (EDDF)
Time Latitude Longitude Altitude Speed Heading
2026-05-04 16:47 19.09484 72.87727 53 ft 0 kts 312°
2026-05-04 17:03 19.09483 72.87728 53 ft 2 kts 312°
2026-05-04 17:04 19.09459 72.87775 46 ft 4 kts 271°
2026-05-04 17:04 19.09468 72.87802 50 ft 0 kts 212°
2026-05-04 17:11 19.09467 72.87801 50 ft 0 kts 212°
2026-05-04 17:11 19.09464 72.87799 49 ft 2 kts 211°
2026-05-04 17:11 19.09411 72.87766 47 ft 7 kts 208°
2026-05-04 17:12 19.09359 72.87757 53 ft 9 kts 178°
2026-05-04 17:12 19.09212 72.87758 48 ft 11 kts 181°
2026-05-04 17:13 19.09059 72.87865 48 ft 8 kts 95°
2026-05-04 17:14 19.09054 72.88025 47 ft 4 kts 119°
2026-05-04 17:14 19.09036 72.88043 49 ft 3 kts 150°
2026-05-04 17:14 19.09018 72.88048 52 ft 1 kts 168°
2026-05-04 17:15 19.09008 72.88050 52 ft 2 kts 168°
2026-05-04 17:15 19.08964 72.88051 49 ft 5 kts 181°
2026-05-04 17:16 19.08898 72.88014 48 ft 5 kts 255°
2026-05-04 17:16 19.08883 72.87626 46 ft 68 kts 269°
2026-05-04 17:17 19.08873 72.86955 50 ft 113 kts 269°
2026-05-04 17:17 19.08941 72.83751 749 ft 155 kts 272°
2026-05-04 17:18 19.09005 72.82581 1062 ft 163 kts 266°
2026-05-04 17:18 19.08867 72.79951 1613 ft 199 kts 265°
2026-05-04 17:19 19.08942 72.76679 2055 ft 249 kts 287°
2026-05-04 17:19 19.11706 72.74566 3253 ft 268 kts 355°
2026-05-04 17:20 19.15470 72.74576 4665 ft 271 kts 357°
2026-05-04 17:20 19.19263 72.74483 5910 ft 277 kts 355°
2026-05-04 17:20 19.21199 72.74398 6518 ft 280 kts 355°
2026-05-04 17:21 19.25143 72.74198 7694 ft 287 kts 355°
2026-05-04 17:21 19.29198 72.73984 8855 ft 296 kts 357°
2026-05-04 17:22 19.31265 72.74099 9488 ft 299 kts
2026-05-04 17:22 19.33343 72.74402 10031 ft 304 kts
2026-05-04 17:23 19.40084 72.75455 10810 ft 348 kts
2026-05-04 17:23 19.42522 72.75831 11038 ft 361 kts
2026-05-04 17:23 19.47666 72.76622 11544 ft 382 kts
2026-05-04 17:24 19.50311 72.77030 11979 ft 386 kts
2026-05-04 17:24 19.58387 72.78273 13382 ft 394 kts
2026-05-04 17:25 19.61072 72.78686 13822 ft 396 kts